Location: Bastrop State Park
(30.1090°N, 97.2819°W)
Time: 08:33:39
(UTC-05:00)

Daily predictions for brighter satellites

Satellite Brightness Start Highest point End
(mag) Time Altitude Azimuth Time Altitude Azimuth Time Altitude Azimuth
ATLAS 3B CENTAUR R/B 4.3 19:30:31 10° SW 19:38:12 56° SSE 19:59:33 10° E
Cosmos 1842 3.9 19:41:49 10° NNW 19:45:44 63° W 19:49:35 10° S
Cosmos 2292 Rocket 4.0 19:42:40 10° SSW 19:46:13 50° W 19:49:13 10° N
H-2A R/B 4.4 19:44:42 10° ESE 19:46:56 15° ENE 19:49:10 10° NE
Cosmos 1709 Rocket 4.0 19:41:26 10° S 19:47:43 73° E 19:54:05 10° N
Cosmos 468 Rocket 4.4 19:47:00 10° SSW 19:52:09 72° WNW 19:57:24 10° NNE
Cosmos 841 Rocket 3.8 19:47:47 10° S 19:52:35 42° ESE 19:57:25 10° NNE
Cosmos 1937 Rocket 4.1 19:55:36 10° N 20:00:27 36° ENE 20:05:14 10° SE
USA 229 DEB 4.1 19:54:29 10° NNW 20:01:27 48° ENE 20:08:29 10° SE
USA 229 4.1 19:54:36 10° NNW 20:01:32 48° ENE 20:08:34 10° SE
COSMOS 2406 3.8 19:58:20 10° SSE 20:03:22 34° ESE 20:08:26 10° NE
ATLAS CENTAUR R/B 4.3 19:52:04 10° NNW 20:03:24 30° NNE 20:07:50 12° E
Cosmos 304 Rocket 3.9 19:59:53 10° S 20:04:27 49° ESE 20:09:04 10° NNE
Cosmos 2084 3.6 20:00:17 10° SW 20:04:29 71° WNW 20:08:27 10° NNE
FENGYUN 3A 3.6 20:00:01 10° SSE 20:05:16 63° ENE 20:10:34 10° N
Resurs 01 Rocket 3.5 20:04:18 11° E 20:05:21 12° ENE 20:07:03 10° NE
FALCON 9 R/B 1.8 20:07:04 10° WNW 20:09:34 46° N 20:14:19 12° ENE
Centaur D AC-29 3.2 19:44:04 10° WSW 20:10:04 49° S 20:14:24 15° ESE
SWIFT 4.3 20:07:22 10° SW 20:10:19 19° S 20:13:18 10° SE
Tiangong 2 2.2 20:08:03 10° WNW 20:11:05 41° SW 20:14:08 10° SE
Cosmos 1707 3.0 20:07:32 10° N 20:11:18 44° E 20:15:03 10° SSE
Cosmos 1763 Rocket 3.5 20:08:34 10° SSW 20:13:38 83° WNW 20:18:47 10° NNE
Cosmos 2184 Rocket 4.3 20:08:56 10° SSE 20:14:50 45° E 20:20:49 10° NNE
Cosmos 2228 3.0 20:10:55 10° S 20:15:15 66° E 20:19:35 10° NNE
BREEZE-M DEB (TANK) 3.7 20:13:48 10° S 20:16:19 18° SE 20:16:45 17° SE
Cosmos 2369 Rocket 2.7 20:11:03 10° NNW 20:16:36 63° WSW 20:22:06 10° S
Cosmos 540 Rocket 4.0 20:12:35 10° SSE 20:17:07 33° E 20:21:39 10° NE
NOAA 12 4.3 20:14:35 10° S 20:19:48 76° WSW 20:25:03 10° NNW
ALOS 2.4 20:17:32 10° S 20:22:11 78° WSW 20:26:51 10° NNW
Cosmos 2058 Rocket 3.0 20:18:41 10° S 20:23:02 88° WNW 20:27:24 10° N
BREEZE-M (TANK) 4.3 20:11:23 10° NW 20:23:52 38° NNE 20:26:39 19° ENE
Cosmos 909 Rocket 4.4 20:16:55 10° NNW 20:25:07 66° ENE 20:31:43 10° SE
Cosmos 1953 Rocket 3.5 20:24:46 10° N 20:29:06 85° W 20:33:24 10° S
FREGAT/IRIS 2.5 20:26:49 10° SSE 20:29:50 89° ENE 20:32:52 10° N
Thor Agena Rocket 4.5 20:25:41 10° N 20:30:45 52° WNW 20:35:45 10° SSW
Cosmos 1340 Rocket 3.1 20:27:13 10° NNW 20:31:17 69° W 20:35:19 10° S
Milstar 3 Cent rocket 2.4 20:26:31 10° WSW 20:31:47 44° SSE 20:34:03 25° ESE
Cosmos 1544 3.4 20:30:15 10° SSE 20:33:37 39° E 20:37:00 10° NNE
Cosmos 1378 3.0 20:30:18 10° N 20:34:05 84° E 20:37:50 10° S
Cosmos 2327 Rocket 4.4 20:31:27 10° S 20:37:31 65° E 20:43:32 10° NNE
Spot 2 Rocket 4.3 20:38:59 27° E 20:39:41 28° ENE 20:43:56 10° NNE
Cosmos 836 Rocket 4.4 20:37:06 10° S 20:42:20 68° ESE 20:47:34 10° NNE
CZ-2D R/B 3.7 20:42:36 38° E 20:42:44 38° ENE 20:46:17 10° N
TIMED 4.4 20:39:18 10° NNW 20:43:41 89° E 20:47:21 14° SSE
EXPRESS MD2 4.5 20:42:21 10° WNW 20:45:20 40° SW 20:49:50 13° SSE
Yuri Rocket 3.2 20:41:07 10° WSW 20:45:31 53° S 20:46:35 40° ESE
Lacrosse 5 3.7 20:45:17 10° WNW 20:49:37 29° WSW 20:53:57 10° S
Cosmos 1356 Rocket 3.3 20:50:02 10° N 20:54:20 76° E 20:56:22 30° SSE
SJ-6B 3.2 20:51:37 10° S 20:55:39 65° WSW 20:59:37 10° NNW
GEOS 3 Rocket 3.6 20:56:25 10° NE 21:01:47 69° ESE 21:07:06 10° SSW
Meteor 1-24 Rocket 3.7 20:59:18 10° N 21:05:15 84° E 21:09:36 18° S
Cosmos 1125 Rocket 4.2 21:03:47 10° N 21:07:53 37° NE 21:07:53 37° NE
GPS 2-04 Rocket1 4.5 21:06:33 10° W 21:10:06 25° SSW 21:10:55 24° SSW
Envisat 3.0 21:11:57 56° ENE 21:11:57 56° ENE 21:16:41 10° N
Cosmos 1943 Rocket 4.0 21:12:38 10° NW 21:17:24 29° WSW 21:22:10 10° SSW
Centaur AC-112 4.3 21:14:12 10° SW 21:17:09 20° SSW 21:17:09 20° SSW
Cosmos 2154 Rocket 3.8 21:13:29 10° S 21:19:41 86° E 21:25:57 10° N
Resurs 1-3 3.9 21:23:04 62° NNW 21:23:04 62° NNW 21:26:45 10° NNW
ISS -1.1 21:24:28 10° WSW 21:25:18 16° WSW 21:25:18 16° WSW
Cosmos 2341 Rocket 3.8 21:28:54 70° E 21:28:54 70° E 21:34:57 10° N
Resurs 01 Rocket 2.7 21:41:54 43° WNW 21:41:54 43° WNW 21:45:37 10° NNW
MOS 1-B Rocket 4.1 21:39:43 50° S 21:41:25 75° WSW 21:47:17 10° NNW
NOSS 3-1 (A) 4.1 21:49:17 10° NNW 21:57:17 80° WSW 21:58:20 70° S
Nadezhda 3 Rocket 4.3 21:52:44 10° NNW 21:58:49 64° W 21:58:49 64° W
